Home > Weather > Caledon > Past weeks

Flag for Canada Weather for the Past 2 Weeks in Caledon, Ontario, Canada

Now
30 °F

Clear.


Feels Like: 30 °F
Forecast: 35 / 55 °F
Wind: No wind

Location: Borden

Current Time: Apr 29, 2016 at 8:26:05 AM

Latest Report: Apr 29, 2016 at 7:00 AM


Visibility: 9 mi

Pressure: 30.12 "Hg

Humidity: 93%

Dew Point: 28 °F

Location of CaledonLocation

Historic Weather in Caledon — Graph

°F

Caledon Temperature Yesterday

Maximum temperature yesterday: 52 °F (at 3:00 PM)
Minimum temperature yesterday: 25 °F (at 3:00 AM)
Average temperature yesterday: 39 °F

High & Low Weather Summary for the Past Weeks

 TemperatureHumidityPressure
High79 °F (Apr 18, 2:00 PM)100% (Apr 22, 1:00 AM)30.49 "Hg (Apr 22, 1:00 AM)
Low19 °F (Apr 14, 7:00 AM)19% (Apr 20, 6:00 PM)29.78 "Hg (Apr 22, 5:00 AM)
Average44 °F63%30.17 "Hg
* Reported Apr 14 7:00 AM — Apr 29 7:00 AM, Caledon, Weather by CustomWeather, © 2016

Note: Actual official high and low records may vary slightly from our data, if they occured in-between our weather recording intervals... More about our weather records

Advertising

Caledon Weather History for the Previous 24 Hours

Scroll right to see more
 ConditionsComfort  
Time TempWeatherWind HumidityBarometerVisibility
7:00 AM
Fri, Apr 29
30 °FClear.No wind93%30.12 "Hg9 mi
6:00 AM28 °FClear.No wind93%30.11 "Hg9 mi
5:00 AM32 °FClear.No wind93%30.10 "Hg9 mi
4:00 AM34 °FClear.No wind87%30.09 "Hg9 mi
3:00 AM34 °FClear.No wind87%30.10 "Hg9 mi
2:00 AM34 °FClear.No wind87%30.10 "Hg9 mi
12:00 AM37 °FClear.No wind81%30.10 "Hg9 mi
11:00 PM
Thu, Apr 28
39 °FClear.No wind75%30.10 "Hg9 mi
10:00 PM41 °FClear.No wind70%30.09 "Hg9 mi
9:00 PM43 °FSunny.2 mph66%30.09 "Hg9 mi
8:00 PM46 °FSunny.5 mph50%30.09 "Hg9 mi
7:00 PM48 °FSunny.6 mph46%30.08 "Hg9 mi
6:00 PM48 °FSunny.7 mph46%30.07 "Hg9 mi
5:00 PM50 °FPassing clouds.6 mph40%30.05 "Hg9 mi
4:00 PM50 °FSunny.9 mph40%30.05 "Hg9 mi
3:00 PM52 °FPassing clouds.8 mph35%30.05 "Hg9 mi
2:00 PM50 °FSunny.3 mph37%30.06 "Hg9 mi
1:00 PM48 °FSunny.5 mph40%30.08 "Hg9 mi
12:00 PM48 °FPassing clouds.7 mph40%30.10 "Hg9 mi
11:00 AM46 °FPassing clouds.9 mph43%30.12 "Hg9 mi
10:00 AM45 °FPassing clouds.12 mph46%30.11 "Hg9 mi
9:00 AM39 °FSunny.6 mph61%30.13 "Hg9 mi
8:00 AM32 °FSunny.No wind93%30.12 "Hg9 mi
Weather by CustomWeather, © 2016

See weather overviewHow to use our weather pages